Location: Piolenc
(44.1794°N, 4.7641°E)
Time: 04:16:34
(UTC+00:00)

Gbstr 26 Del rocket - Pass Details

Date: 27 January 2021
Orbit: 492 x 1264 km, 51.8° (Epoch: 27 February)

Event Time Altitude Azimuth Distance (km) Brightness Sun altitude
Exits shadow 04:13:40 74° 222° (SW) 1,217 4.2 -30.5°
Maximum altitude 04:14:28 86° 146° (SE) 1,192 4.3 -30.4°
Drops below altitude 10° 04:22:36 10° 59° (ENE) 3,243 7.4 -28.9°
Sets 04:25:32 0° 60° (ENE) 4,224 8.2 -28.4°
